Stations météo

réclame
Mon MeteoGroup
Antwerpen, Belgique (6450): Température de l'air & dewpoint: 17.09.2018 04:00:00 - 23.09.2018 04:00:00 (CEST)Antwerpen, Belgique (6450): Vitesse du vent & gusts: 17.09.2018 04:00:00 - 23.09.2018 04:00:00 (CEST)Antwerpen, Belgique (6450): Direction du vent: 17.09.2018 04:00:00 - 23.09.2018 04:00:00 (CEST)Antwerpen, Belgique (6450): reduced air pressure: 17.09.2018 04:00:00 - 23.09.2018 04:00:00 (CEST)Antwerpen, Belgique (6450): visibility: 17.09.2018 04:00:00 - 23.09.2018 04:00:00 (CEST)
Date & Time tt [°C] td [°C] ff [km/h] ff [knt] fx [km/h] fx [knt] dd ppp [hPa] vv [km]
23.09.2018 04:00:00 10,9 10,5 11 6 18 10 E 1013,6 5
23.09.2018 03:00:00 10,7 10,1 11 6 18 10 E 1014,1 5
23.09.2018 02:00:00 10,8 10,5 9 5 - - E 1015,3 5
23.09.2018 01:00:00 10,6 9,9 9 5 14 8 ESE 1016,0 4,9
23.09.2018 00:00:00 10,5 10,0 9 5 14 8 ESE 1017,1 7
22.09.2018 23:00:00 10,7 10,7 9 5 - - SSE 1018,0 5
22.09.2018 22:00:00 10,7 9,9 8 4 18 10 S 1018,5 8
22.09.2018 21:00:00 11,1 11,0 8 4 14 8 S 1018,8 10
22.09.2018 20:00:00 11,6 10,7 8 4 - - SSW 1019,0 10
22.09.2018 19:00:00 12,2 10,6 9 5 18 10 SSW 1018,9 10
22.09.2018 18:00:00 12,7 9,1 13 7 25 14 SW 1019,8 10
22.09.2018 17:00:00 13,7 8,2 15 8 - - W 1019,8 10
22.09.2018 16:00:00 14,1 8,6 22 12 36 19 W 1020,1 10
22.09.2018 15:00:00 14,7 8,9 21 11 32 18 WSW 1020,3 10
22.09.2018 14:00:00 15,1 9,9 21 11 - - WSW 1020,3 10
22.09.2018 13:00:00 15,1 8,2 16 9 29 16 SW 1020,2 10
22.09.2018 12:00:00 15,1 8,4 21 11 29 16 SW 1020,3 10
22.09.2018 11:00:00 14,6 9,4 16 9 - - SSW 1020,6 10
22.09.2018 10:00:00 13,3 8,6 16 9 29 16 SSW 1020,4 10
22.09.2018 09:00:00 11,6 8,6 15 8 22 12 SSW 1020,7 10
22.09.2018 08:00:00 11,1 8,0 13 7 - - SSW 1020,3 10
22.09.2018 07:00:00 11,0 7,8 15 8 22 12 SW 1019,9 10
22.09.2018 06:00:00 11,4 7,7 15 8 22 12 SW 1019,8 10
22.09.2018 05:00:00 11,8 7,1 15 8 - - SW 1019,5 10
22.09.2018 04:00:00 12,5 7,1 15 8 29 16 SW 1019,4 10
22.09.2018 03:00:00 12,6 7,1 15 8 29 16 WSW 1018,8 10
22.09.2018 02:00:00 13,1 7,4 16 9 - - WSW 1018,3 10
22.09.2018 01:00:00 13,6 7,3 21 11 36 19 WSW 1017,6 10
22.09.2018 00:00:00 13,7 8,0 24 13 40 21 WSW 1016,6 10
21.09.2018 23:00:00 14,1 7,7 26 14 - - WSW 1015,9 10
21.09.2018 22:00:00 14,5 6,9 28 15 47 25 WSW 1015,3 10
21.09.2018 21:00:00 14,9 6,1 26 14 54 29 WSW 1014,4 10
21.09.2018 20:00:00 15,4 5,0 31 17 - - WSW 1013,4 10
21.09.2018 19:00:00 16,4 4,2 29 16 58 31 WSW 1012,5 10
21.09.2018 18:00:00 16,4 3,7 28 15 54 29 WSW 1012,2 10
21.09.2018 17:00:00 16,9 4,6 31 17 - - WSW 1012,0 10
21.09.2018 16:00:00 17,2 2,5 37 20 61 33 W 1011,5 10
21.09.2018 15:00:00 16,8 3,0 35 19 58 31 W 1010,8 10
21.09.2018 14:00:00 15,9 7,1 26 14 - - W 1009,8 10
21.09.2018 13:00:00 15,4 6,5 34 18 54 29 W 1009,0 10
21.09.2018 12:00:00 16,3 7,3 34 18 50 27 W 1007,9 10
21.09.2018 11:00:00 15,6 10,0 26 14 - - W 1006,8 10
21.09.2018 10:00:00 14,8 12,5 21 11 40 21 WSW 1005,5 10
21.09.2018 09:00:00 14,6 12,8 24 13 65 35 WSW 1004,7 7
21.09.2018 08:00:00 17,0 15,2 26 14 - - SW 1003,0 5
21.09.2018 07:00:00 18,6 13,6 29 16 50 27 SSW 1002,7 10
21.09.2018 06:00:00 19,5 12,5 26 14 47 25 SSW 1002,9 10
21.09.2018 05:00:00 19,4 12,7 24 13 - - S 1003,6 10
21.09.2018 04:00:00 19,8 12,8 24 13 40 21 SSW 1004,8 10
21.09.2018 03:00:00 20,9 13,2 21 11 36 19 SSW 1006,0 10
21.09.2018 02:00:00 21,2 12,9 18 10 - - SSW 1007,0 10
21.09.2018 01:00:00 21,2 12,7 18 10 36 19 SSW 1008,0 10
21.09.2018 00:00:00 21,5 12,7 21 11 32 18 SSW 1008,6 10
20.09.2018 23:00:00 21,4 12,6 16 9 - - S 1009,3 10
20.09.2018 22:00:00 21,5 12,5 13 7 22 12 S 1010,3 10
20.09.2018 21:00:00 21,9 12,5 11 6 18 10 S 1011,1 10
20.09.2018 20:00:00 22,7 12,1 13 7 - - SSW 1011,6 10
20.09.2018 19:00:00 23,5 12,8 14 8 36 19 SSW 1012,1 25
20.09.2018 18:00:00 24,4 12,6 21 11 40 21 SSW 1012,9 10
20.09.2018 17:00:00 24,4 12,0 26 14 - - SSW 1013,6 10
20.09.2018 16:00:00 24,4 11,6 22 12 40 21 SSW 1014,4 10
20.09.2018 15:00:00 23,9 12,0 24 13 40 21 SW 1015,3 10
20.09.2018 14:00:00 22,3 12,7 24 13 - - SSW 1016,0 10
20.09.2018 13:00:00 21,4 13,1 16 9 40 21 SW 1016,5 10
20.09.2018 12:00:00 20,4 13,8 18 10 32 18 SW 1016,9 10
20.09.2018 11:00:00 19,8 13,5 15 8 - - SSW 1017,0 10
20.09.2018 10:00:00 18,5 13,5 18 10 29 16 SW 1017,2 10
20.09.2018 09:00:00 17,3 13,2 11 6 18 10 SSW 1017,1 10
20.09.2018 08:00:00 15,9 12,4 8 4 - - S 1016,8 10
20.09.2018 07:00:00 16,1 12,6 9 5 18 10 SSW 1017,0 10
20.09.2018 06:00:00 16,3 12,2 11 6 18 10 SSW 1017,1 10
20.09.2018 05:00:00 16,7 12,6 13 7 - - S 1017,4 10
20.09.2018 04:00:00 17,0 12,0 5 3 11 6 SSW 1017,2 10
20.09.2018 03:00:00 18,1 12,5 8 4 11 6 SSW 1017,4 10
20.09.2018 02:00:00 18,4 12,7 5 3 - - S 1017,5 10
20.09.2018 01:00:00 19,3 12,7 9 5 14 8 SSW 1017,6 10
20.09.2018 00:00:00 19,9 13,0 7 4 14 8 SSW 1018,1 26
19.09.2018 23:00:00 20,3 12,8 11 6 - - SSW 1018,1 10
19.09.2018 22:00:00 20,6 13,0 9 5 18 10 SSW 1017,9 10
19.09.2018 21:00:00 21,5 12,7 9 5 22 12 SSW 1017,7 10
19.09.2018 20:00:00 22,3 12,6 13 7 - - SSW 1017,4 10
19.09.2018 19:00:00 22,8 12,5 15 8 40 21 SW 1017,1 10
19.09.2018 18:00:00 23,3 12,3 18 10 36 19 SW 1017,0 10
19.09.2018 17:00:00 23,6 11,7 26 14 - - WSW 1016,9 10
19.09.2018 16:00:00 24,0 11,7 22 12 43 23 SW 1016,7 10
19.09.2018 15:00:00 23,8 11,6 22 12 43 23 SW 1016,6 10
19.09.2018 14:00:00 22,6 11,8 21 11 - - SW 1017,0 10
19.09.2018 13:00:00 22,4 12,5 26 14 43 23 SW 1017,1 10
19.09.2018 12:00:00 20,5 13,3 24 13 36 19 WSW 1017,4 10
19.09.2018 11:00:00 20,1 13,7 16 9 - - SW 1016,9 10
19.09.2018 10:00:00 19,0 14,2 18 10 29 16 SW 1016,6 10
19.09.2018 09:00:00 18,0 14,7 15 8 25 14 SSW 1016,3 10
19.09.2018 08:00:00 16,7 14,4 13 7 - - S 1015,9 10
19.09.2018 07:00:00 15,8 13,6 8 4 18 10 S 1015,9 10
19.09.2018 06:00:00 15,6 12,4 13 7 18 10 S 1016,0 10
19.09.2018 05:00:00 13,5 12,4 8 4 - - SE 1016,4 10
19.09.2018 04:00:00 14,1 12,2 4 2 14 8 SE 1016,4 10
19.09.2018 03:00:00 16,1 12,1 11 6 14 8 S 1016,6 16
19.09.2018 02:00:00 13,4 11,3 8 4 - - S 1016,6 10
19.09.2018 01:00:00 16,5 12,2 7 4 11 6 S 1016,6 18
19.09.2018 00:00:00 17,6 12,3 8 4 14 8 S 1016,4 10
18.09.2018 23:00:00 18,4 12,8 8 4 - - W 1016,0 10
18.09.2018 22:00:00 19,5 13,1 11 6 32 18 W 1016,0 10
18.09.2018 21:00:00 20,5 13,0 16 9 32 18 W 1015,4 10
18.09.2018 20:00:00 21,4 12,8 22 12 - - W 1014,7 10
18.09.2018 19:00:00 23,5 12,9 18 10 36 19 W 1014,1 10
18.09.2018 18:00:00 24,4 12,5 21 11 43 23 WSW 1013,7 10
18.09.2018 17:00:00 24,9 12,3 28 15 - - WSW 1013,4 10
18.09.2018 16:00:00 24,8 12,8 28 15 43 23 WSW 1013,2 10
18.09.2018 15:00:00 24,5 12,4 24 13 40 21 SW 1012,8 10
18.09.2018 14:00:00 24,9 12,8 24 13 - - SW 1012,5 10
18.09.2018 13:00:00 23,6 12,3 24 13 36 19 WSW 1012,2 10
18.09.2018 12:00:00 22,7 12,7 18 10 32 18 WSW 1012,3 10
18.09.2018 11:00:00 21,5 12,2 16 9 - - SW 1011,9 10
18.09.2018 10:00:00 21,1 10,8 22 12 36 19 WSW 1011,7 10
18.09.2018 09:00:00 20,0 10,7 11 6 14 8 SSW 1011,2 10
18.09.2018 08:00:00 15,1 10,3 11 6 - - SSE 1010,5 50
18.09.2018 07:00:00 14,6 9,7 8 4 14 8 SE 1010,3 10
18.09.2018 06:00:00 15,6 10,1 9 5 14 8 SSE 1010,5 10
18.09.2018 05:00:00 12,3 7,5 8 4 - - SE 1010,9 10
18.09.2018 04:00:00 12,4 7,6 8 4 11 6 ESE 1011,3 10
18.09.2018 03:00:00 12,6 7,4 8 4 11 6 ESE 1011,9 10
18.09.2018 02:00:00 13,5 7,6 8 4 - - SE 1012,5 10
18.09.2018 01:00:00 14,5 8,2 8 4 11 6 SE 1013,0 10
18.09.2018 00:00:00 14,3 7,9 5 3 7 4 ESE 1013,6 10
17.09.2018 23:00:00 13,3 9,3 5 3 - - ESE 1014,1 10
17.09.2018 22:00:00 16,0 9,0 8 4 7 4 ESE 1014,4 10
17.09.2018 21:00:00 15,5 9,4 8 4 7 4 SE 1014,6 10
17.09.2018 20:00:00 20,4 9,5 5 3 - - SE 1014,8 10
17.09.2018 19:00:00 23,4 10,1 5 3 18 10 SE 1015,2 10
17.09.2018 18:00:00 25,4 7,4 13 7 18 10 S 1015,6 10
17.09.2018 17:00:00 25,2 7,3 11 6 - - SW 1016,4 10
17.09.2018 16:00:00 25,2 7,1 13 7 22 12 SSW 1017,2 10
17.09.2018 15:00:00 24,9 8,0 11 6 25 14 S 1017,9 10
17.09.2018 14:00:00 23,5 7,4 13 7 - - SSW 1018,5 10
17.09.2018 13:00:00 22,5 9,7 7 4 18 10 SSW 1019,1 50
17.09.2018 12:00:00 21,3 10,4 11 6 14 8 SW 1019,5 50
17.09.2018 11:00:00 19,0 10,7 9 5 - - SSW 1019,6 10
17.09.2018 10:00:00 16,0 10,0 8 4 11 6 SSW 1019,9 10
17.09.2018 09:00:00 13,2 11,2 4 2 4 2 SE 1020,0 50
17.09.2018 08:00:00 9,4 9,0 4 2 - - ESE 1019,9 10
17.09.2018 07:00:00 10,5 9,3 2 1 11 6 ESE 1019,6 10
17.09.2018 06:00:00 13,0 9,1 8 4 11 6 SSE 1019,2 10
17.09.2018 05:00:00 9,9 7,7 4 2 - - - 1019,8 10
17.09.2018 04:00:00 9,7 7,9 4 2 7 4 SE 1019,6 40

tt = Température de l'air
td = dewpoint
ff = Vitesse du vent
fx = gusts
dd = Direction du vent
ppp = reduced air pressure
vv = visibility

stations d'obs. à proximité